Tracking 29892 objects as of 21-Nov-2024
HD Live streaming from Space Station
objects crossing your sky now

STARLINK-2745

Track STARLINK-2745 now!
10-day predictions
STARLINK-2745 is classified as:


NORAD ID: 48671
Int'l Code: 2021-044AK
Perigee: 553.1 km
Apogee: 555.4 km
Inclination: 53.1 °
Period: 95.6 minutes
Semi major axis: 6925 km
RCS: Unknown
Launch date: May 26, 2021
Source: United States (US)
Launch site: AIR FORCE EASTERN TEST RANGE (AFETR)
Your satellite tracking list
Your tracking list is empty




NASA's NSSDC Master Catalog

Two Line Element Set (TLE):
1 48671U 21044AK  24325.80513292  .00009553  00000-0  65869-3 0  9992
2 48671  53.0548  79.2724 0001690 105.9342 254.1833 15.06437548192410
Source of the keplerian elements: AFSPC